Tracking 25723 objects as of 27-Jun-2022
HD Live streaming from Space Station
objects crossing your sky now

YAOGAN-33

Track YAOGAN-33 now!
10-day predictions


NORAD ID: 47302
Int'l Code: 2020-103A
Perigee: 701.9 km
Apogee: 704.7 km
Inclination: 98.2 °
Period: 98.7 minutes
Semi major axis: 7074 km
RCS: Unknown
Launch date: December 27, 2020
Source: People's Republic of China (PRC)
Launch site: Jiuquan Satellite Launch Center, China (JSC)
aabbcc
Your satellite tracking list
Your tracking list is empty




NASA's NSSDC Master Catalog

Two Line Element Set (TLE):
1 47302U 20103A   22178.14478966  .00000304  00000-0  74431-4 0  9997
2 47302  98.2103  69.0557 0001933  19.5878 340.5396 14.59072151 79705
Source of the keplerian elements: AFSPC